Location: Allentsteig
(48.6833°N, 15.3167°E)
Time: 00:16:28
(UTC+00:00)

Cosmos 2298 Rocket - Pass Details

Date: 17 January 2021
Orbit: 775 x 784 km, 74.0° (Epoch: 03 March)

Event Time Altitude Azimuth Distance (km) Brightness Sun altitude
Exits shadow 05:24:53 - 340° (NNW) 3,102 6.8 -12.8°
Reaches altitude 10° 05:26:52 10° 345° (NNW) 2,352 6.2 -12.5°
Maximum altitude 05:32:05 52° 61° (ENE) 969 4.8 -11.7°
Drops below altitude 10° 05:37:17 10° 138° (SE) 2,339 7.5 -10.9°
Sets 05:39:44 0° 144° (SE) 3,263 8.3 -10.5°
